Weather observations for the past three days for
Charleston, Charleston Air Force Base
Imperial (Metric)
Date Time (edt) Wind (mph) Vis. (mi.) Weather Sky Cond. Temperature (ºF) Relative Humidity Wind Chill (°F) Heat Index (°F) Pressure Precipitation (in)
Air Dwpt 6 hour altimeter (in) sea level (mb) 1 hr 3 hr 6 hr
Max. Min.
18 00:56 S 6 10.00 Partly Cloudy FEW060 SCT250 78.1 72 82% 80 30.01 1016.1
17 23:56 SW 6 10.00 Partly Cloudy FEW020 SCT060 SCT250 80.1 72 76% 84 30.03 1016.7
17 22:56 SW 9 10.00 Partly Cloudy FEW020 SCT085 SCT250 82 72 72% 87 30.04 1017.3
17 21:56 W 10 10.00 Partly Cloudy FEW020 SCT025 SCT250 84 73.9 72% 91 30.03 1016.8
17 20:56 S 13 10.00 Partly Cloudy FEW025 SCT250 84.9 75 72% 93 29.99 1015.6
17 19:56 SW 12 G 24 10.00 Mostly Cloudy FEW025 BKN250 86 75 95 86 70% 95 29.98 1015.3
17 18:56 S 16 G 29 10.00 Partly Cloudy SCT025 SCT250 89.1 75.9 65% 100 29.98 1015.1
17 17:56 S 17 10.00 Partly Cloudy FEW030 SCT250 91 75 59% 102 29.96 1014.4
17 16:56 S 16 10.00 Partly Cloudy FEW035 SCT250 91.9 75.9 60% 104 29.97 1014.7
17 15:56 S 15 G 24 10.00 Partly Cloudy FEW030 SCT045 SCT200 93 78.1 62% 109 29.97 1014.9
17 14:56 S 10 10.00 Mostly Cloudy BKN045 BKN200 93.9 75 54% 106 30 1015.8
17 13:56 SW 12 10.00 Mostly Cloudy SCT040 BKN250 93.9 75 93.9 82 54% 106 30 1016.0
17 12:56 SW 8 10.00 Mostly Cloudy SCT035 BKN250 91.9 75 58% 103 30.02 1016.5
17 11:56 Vrbl 3 10.00 Mostly Cloudy SCT030 BKN250 91 75.9 61% 103 30.03 1016.8
17 10:56 SW 8 10.00 Partly Cloudy FEW025 SCT250 88 75.9 68% 99 30.04 1017.3
17 09:56 W 10 10.00 Partly Cloudy FEW025 SCT250 86 75 70% 95 30.05 1017.4
17 08:56 W 9 10.00 Partly Cloudy FEW020 SCT250 84.9 75 72% 93 30.05 1017.4
17 07:56 W 9 10.00 Mostly Cloudy FEW120 BKN200 82 75.9 82.9 79 82% 89 30.05 1017.3
17 06:56 SW 8 10.00 Mostly Cloudy FEW030 SCT120 BKN200 81 75.9 85% 87 30.02 1016.3
17 05:56 SW 8 10.00 Mostly Cloudy FEW030 SCT040 BKN140 80.1 75 85% 85 29.99 1015.4
17 04:56 SW 7 10.00 Mostly Cloudy FEW030 BKN140 80.1 75.9 87% 85 29.98 1015.0
17 03:56 SW 8 10.00 Partly Cloudy SCT140 80.1 75.9 87% 85 29.96 1014.5
17 02:56 S 7 10.00 Mostly Cloudy BKN140 80.1 75.9 87% 85 29.97 1014.9
17 01:56 S 6 10.00 Mostly Cloudy SCT040 BKN160 79 77 86 75.9 94% 83 29.99 1015.6 0.08
17 00:56 S 6 10.00 Mostly Cloudy FEW040 BKN160 80.1 75.9 87% 85 30.01 1016.2
16 23:56 Calm 10.00 Light Rain SCT035 SCT045 BKN070 79 75.9 90% 83 30.02 1016.6 0.02
16 22:56 Calm 7.00 Light Rain SCT065 BKN090 OVC110 78.1 73.9 87% 81 30.03 1016.9 0.02 0.06
16 21:56 S 15 7.00 Thunderstorm Light Rain FEW020CB BKN055 BKN070 75.9 73 91% 76 30.01 1016.1 0.04
16 20:56 W 16 G 23 9.00 Mostly Cloudy SCT025 BKN035 BKN200 82.9 70 65% 87 30.03 1016.9
16 19:56 S 10 10.00 Mostly Cloudy FEW030 SCT150 BKN200 86 75.9 95 84.9 72% 96 30.01 1016.2
16 18:56 S 13 10.00 Mostly Cloudy FEW030 SCT150 BKN200 87.1 75 67% 97 29.99 1015.4
16 17:56 S 12 10.00 Partly Cloudy SCT150 SCT200 90 73.9 59% 99 29.97 1014.7
16 16:56 S 15 10.00 Partly Cloudy FEW035 SCT150 SCT200 91.9 75 58% 103 29.98 1015.2
16 15:56 S 12 10.00 Partly Cloudy FEW035 SCT150 91.9 73.9 56% 102 29.98 1015.1
16 14:56 SW 12 10.00 Mostly Cloudy FEW040 BKN150 93.9 75 54% 106 29.99 1015.5
16 13:56 S 13 10.00 Partly Cloudy FEW040 SCT200 91.9 73.9 93 81 56% 102 30 1015.8
16 12:56 S 13 10.00 Mostly Cloudy FEW035 SCT120 BKN200 91.9 73 54% 101 30.02 1016.6
16 11:56 SW 8 10.00 Mostly Cloudy FEW035 SCT120 BKN200 91 73.9 57% 101 30.04 1017.1
16 10:56 SW 7 10.00 Mostly Cloudy BKN200 90 73.9 59% 99 30.05 1017.4
16 09:56 W 5 10.00 Partly Cloudy FEW030 SCT200 86 73 65% 93 30.05 1017.5
16 08:56 W 9 10.00 A Few Clouds FEW060 FEW250 82.9 73.9 74% 89 30.05 1017.4
16 07:56 SW 8 10.00 A Few Clouds FEW250 81 73 81 77 77% 86 30.04 1017.1
16 06:56 SW 6 10.00 A Few Clouds FEW180 FEW250 78.1 73 85% 81 30.03 1016.9
16 05:56 SW 8 10.00 A Few Clouds FEW200 78.1 73 85% 81 30.02 1016.3
16 04:56 SW 3 10.00 Fair CLR 77 73 88% 78 29.99 1015.3
16 03:56 SW 6 10.00 Fair CLR 78.1 73 85% 81 29.98 1015.0
16 02:56 SW 6 10.00 A Few Clouds FEW200 78.1 73.9 87% 81 29.97 1014.9
16 01:56 SW 6 10.00 Partly Cloudy SCT200 79 73.9 86 79 85% 83 29.99 1015.6
16 00:56 W 5 10.00 Overcast OVC200 80.1 75 85% 85 30.01 1016.0
15 23:56 SW 7 10.00 Mostly Cloudy BKN200 80.1 73.9 82% 85 30.01 1016.0
15 22:56 S 6 10.00 Partly Cloudy FEW050 SCT200 79 73.9 85% 83 30.01 1016.0
15 21:56 W 3 10.00 Mostly Cloudy BKN200 82 73.9 77% 88 30 1015.9
15 20:56 S 9 10.00 Mostly Cloudy FEW150 BKN200 84.9 73 68% 92 29.98 1015.1
15 19:56 SW 7 10.00 Mostly Cloudy SCT150 BKN200 86 78.1 98.1 86 77% 98 30 1015.7
15 18:56 S 9 10.00 Mostly Cloudy SCT150 BKN200 87.1 78.1 75% 100 29.98 1015.2
15 17:56 S 12 10.00 Mostly Cloudy FEW055 BKN200 88 78.1 73% 102 29.96 1014.6
15 16:56 SW 3 10.00 Mostly Cloudy FEW020 SCT055 BKN200 87.1 75.9 70% 98 29.97 1014.9
15 15:56 W 8 10.00 Thunderstorm FEW020CB SCT055 BKN200 88 73 61% 96 29.98 1015.0
15 14:56 S 13 10.00 Mostly Cloudy SCT045 BKN055 BKN075 91.9 77 62% 106 29.99 1015.5
15 13:56 SW 3 10.00 Partly Cloudy SCT045 98.1 71.1 98.1 82 42% 106 30.01 1016.0
15 12:56 W 6 10.00 A Few Clouds FEW040 FEW250 96.1 73.9 49% 107 30.03 1016.9
15 11:56 SW 5 10.00 A Few Clouds FEW250 93.9 77 58% 108 30.05 1017.5
15 10:56 W 5 10.00 A Few Clouds FEW250 91 75.9 61% 103 30.07 1018.1
15 09:56 Vrbl 3 10.00 A Few Clouds FEW250 87.1 75.9 70% 98 30.07 1018.0
15 08:56 SW 6 10.00 A Few Clouds FEW250 84 75.9 77% 93 30.06 1017.6
15 07:56 SW 6 10.00 A Few Clouds FEW250 82 75.9 82 78.1 82% 89 30.06 1017.6
15 06:56 Calm 10.00 A Few Clouds FEW060 80.1 75.9 87% 85 30.04 1017.0
15 05:56 SW 5 10.00 Fair CLR 79 75.9 90% 83 30.02 1016.3
15 04:56 SW 3 9.00 Fair CLR 79 75.9 90% 83 30.02 1016.3
15 03:56 S 5 7.00 Fair CLR 79 75.9 90% 83 30.02 1016.3
15 02:56 W 5 10.00 Fair CLR 81 77 88% 88 30.04 1017.0
15 01:56 NW 5 10.00 Partly Cloudy SCT080 81 78.1 82 80.1 91% 89 30.07 1018.0
Date Time (edt) Wind (mph) Vis. (mi.) Weather Sky Cond. Air Dwpt Max. Min. Relative Humidity Wind Chill (°F) Heat Index (°F) altimeter (in) sea level (mb) 1 hr 3 hr 6 hr
6 hour
Temperature (ºF) Pressure Precipitation (in)